Location: Kervinic
(48.4279°N, 4.7373°W)
Time: 08:12:28
(UTC+00:00)

STARLINK-1189 - Pass Details

Date: 09 April 2020
Orbit: 378 x 381 km, 53.0° (Epoch: 25 May)

Event Time Altitude Azimuth Distance (km) Brightness Sun altitude
Rises 19:51:17 0° 295° (WNW) 2,264 9.3 -8.6°
Reaches altitude 10° 19:53:21 10° 296° (WNW) 1,408 7.4 -8.9°
Maximum altitude 19:56:30 89° 38° (NE) 388 2.8 -9.4°
Enters shadow 19:58:59 15° 117° (ESE) 1,137 4.6 -9.8°
